Tracking 31027 objects as of 19-Jul-2025
HD Live streaming from Space Station
objects crossing your sky now

STARLINK-4556

Track STARLINK-4556 now!
10-day predictions
STARLINK-4556 is classified as:


NORAD ID: 53578
Int'l Code: 2022-101BD
Perigee: 546.0 km
Apogee: 547.8 km
Inclination: 53.2 °
Period: 95.4 minutes
Semi major axis: 6917 km
RCS: Unknown
Launch date: August 19, 2022
Source: United States (US)
Launch site: AIR FORCE EASTERN TEST RANGE (AFETR)
Your satellite tracking list
FENGYUN 1C DEB
Track 1 satellite(s)




NASA's NSSDC Master Catalog

Two Line Element Set (TLE):
1 53578U 22101BD  25199.81773375 -.00000130  00000-0  99291-5 0  9991
2 53578  53.2177  23.6459 0001284  88.8720 271.2419 15.08832485161145
Source of the keplerian elements: AFSPC